This demonstration page uses our WeatherBlox Daily Observations layout. Learn more.

Left ArrowRight Arrow

38.20091, -84.87328

Hourly Observations for August 25, 2018

Temp ( °F °C ) Dew Point ( °F °C ) Humidity (%) Winds ( mph kmh ) Pressure ( in mb ) Visibility ( mi km ) Precip ( " mm )
12:53 am 00:53 Cloudy 71 21.7 64 17.8 79 79 SSE 7 11 30.08 1019 10 16 0.00 0.00
1:53 am 01:53 Cloudy 71 21.7 63 17.2 76 76 S 6 9 30.08 1019 10 16 0.00 0.00
2:53 am 02:53 Cloudy 71 21.7 63 17.2 76 76 S 6 9 30.08 1019 10 16 0.00 0.00
3:53 am 03:53 Cloudy 70 21.1 63 17.2 79 79 SSE 6 9 30.09 1019 10 16 0.00 0.00
4:53 am 04:53 Cloudy 69 20.6 63 17.2 81 81 SSE 6 9 30.10 1019 10 16 0.00 0.03
5:53 am 05:53 Cloudy 69 20.6 63 17.2 81 81 S 6 9 30.12 1020 10 16 0.00 0.03
6:53 am 06:53 Mostly Cloudy with Light Rain 68 20 64 17.8 87 87 S 8 13 30.12 1020 9 14 0.02 0.51
7:53 am 07:53 Mostly Sunny 69 20.6 63 17.2 81 81 S 10 17 30.11 1020 10 16 0.00 0.03
8:53 am 08:53 Mostly Sunny 71 21.7 64 17.8 79 79 S 10 17 30.12 1020 10 16 0.00 0.00
9:53 am 09:53 Sunny 73 22.8 65 18.3 76 76 SSW 10 17 30.13 1020 10 16 0.00 0.00
10:53 am 10:53 Sunny 75 23.9 65 18.3 71 71 SSW 12 19 30.15 1021 10 16 0.00 0.00
11:53 am 11:53 Mostly Sunny 77 25 65 18.3 66 66 SSW 10 17 30.14 1021 10 16 0.00 0.00
12:53 pm 12:53 Mostly Cloudy 78 25.6 67 19.4 69 69 S 10 17 30.14 1021 10 16 0.00 0.00
1:53 pm 13:53 Mostly Cloudy 81 27.2 68 20 65 65 S 9 15 30.13 1020 10 16 0.00 0.00
2:53 pm 14:53 Mostly Sunny 80 26.7 68 20 67 67 S 8 13 30.12 1020 10 16 0.00 0.00
3:53 pm 15:53 Mostly Cloudy 80 26.7 70 21.1 71 71 S 9 15 30.11 1020 10 16 0.00 0.00
4:53 pm 16:53 Mostly Sunny 83 28.3 71 21.7 67 67 S 12 19 30.07 1018 10 16 0.00 0.00
5:53 pm 17:53 Sunny 84 28.9 71 21.7 65 65 S 13 20 30.07 1018 10 16 0.00 0.00
6:53 pm 18:53 Sunny 83 28.3 71 21.7 67 67 S 10 17 30.06 1018 10 16 0.00 0.00
7:53 pm 19:53 Partly Cloudy 81 27.2 70 21.1 69 69 S 9 15 30.07 1018 10 16 0.00 0.00
8:53 pm 20:53 Clear 79 26.1 70 21.1 74 74 S 8 13 30.08 1019 10 16 0.00 0.00
9:53 pm 21:53 Clear 78 25.6 69 20.6 74 74 S 8 13 30.08 1019 10 16 0.00 0.00
10:53 pm 22:53 Clear 78 25.6 69 20.6 74 74 S 7 11 30.08 1019 10 16 0.00 0.00
11:53 pm 23:53 Partly Cloudy 77 25 69 20.6 77 77 SSW 10 17 30.08 1019 10 16 0.00 0.00

Powered by AerisWeather